Volver al catálogo

ATLAS 35F R/B

ActivoHEO
NORAD 11705·ROCKET BODY·🇺🇸 United States

Lanzado Feb 9, 1980 desde Vandenberg Space Force Base

Loading…

Próximos Pases (próximas 24 horas)

TLE

ActualizadoSource: Space-Track

Época: Sep 9, 2026, 02:01 UTC

1 11705U 80011B   26252.08435138  .00000008  00000-0  00000-0 0  9991
2 11705  64.3894 143.9020 4796194 251.2781  52.2860  4.97662631843467

Sigue ATLAS 35F R/B en tiempo real con AllMySat

Download on the App Store